EW0362 Weather Reports


time (UTC)temp
C
wind
direction
speed
KPH
gust
KPH
rain 1hr
cm
rain 24hr
cm
rain mn
cm
humidity
%
barometer
mb
20260901133704 17 115 0.0 0.0 0.38 0.64 0.64 95 1017.4
20260901133204 17 115 0.0 0.0 0.43 0.64 0.64 95 1017.5
20260901132704 17 115 0.0 0.0 0.43 0.61 0.61 95 1017.6
20260901130704 17 114 0.0 0.0 0.48 0.51 0.51 95 1017.8
20260901130204 17 131 0.0 0.0 0.51 0.51 0.51 96 1017.8
20260901125705 17 124 0.0 0.0 0.48 0.48 0.48 95 1017.8
20260901125204 17 124 0.0 1.6 0.43 0.43 0.43 95 1017.8
20260901124704 18 271 0.0 0.0 0.38 0.38 0.38 95 1017.8
20260901123704 18 267 0.0 0.0 0.25 0.25 0.25 95 1017.9
20260901123204 18 272 0.0 0.0 0.20 0.20 0.20 95 1017.9
20260901122204 18 0 0.0 1.6 0.10 0.10 0.10 95 1018.0
20260901115704 18 5 0.0 0.0 0.00 0.00 0.00 95 1017.8
20260901114704 18 5 0.0 0.0 0.00 0.00 0.00 95 1017.7
20260901113705 18 5 0.0 0.0 0.00 0.00 0.00 95 1017.6
20260901113204 18 5 0.0 0.0 0.00 0.00 0.00 95 1017.6
20260901112204 18 5 0.0 0.0 0.00 0.00 0.00 94 1017.5
20260901111704 18 5 0.0 0.0 0.00 0.00 0.00 94 1017.5
20260901111204 18 5 0.0 0.0 0.00 0.00 0.00 94 1017.5
20260901110703 18 5 0.0 0.0 0.00 0.00 0.00 94 1017.5
20260901110204 18 5 0.0 0.0 0.00 0.00 0.00 94 1017.5
20260901105705 18 5 0.0 0.0 0.00 0.00 0.00 94 1017.3
20260901105204 18 5 0.0 0.0 0.00 0.00 0.00 94 1017.3
20260901103704 18 5 0.0 0.0 0.00 0.00 0.00 94 1017.1
20260901103204 18 5 0.0 0.0 0.00 0.00 0.00 94 1017.1
20260901102704 18 5 0.0 0.0 0.00 0.00 0.00 94 1017.0
20260901101704 17 5 0.0 0.0 0.00 0.00 0.00 94 1016.9
20260901101204 17 5 0.0 0.0 0.00 0.00 0.00 94 1016.8
20260901100704 17 5 0.0 0.0 0.00 0.00 0.00 94 1016.7
20260901095704 17 5 0.0 0.0 0.00 0.00 0.00 94 1016.6
20260901095204 17 5 0.0 0.0 0.00 0.00 0.00 94 1016.6
20260901094704 17 5 0.0 0.0 0.00 0.00 0.00 94 1016.6
20260901093704 17 5 0.0 0.0 0.00 0.00 0.00 94 1016.5
20260901092704 17 5 0.0 0.0 0.00 0.00 0.00 94 1016.5
20260901092204 17 5 0.0 0.0 0.00 0.00 0.00 94 1016.7
20260901091204 17 5 0.0 0.0 0.00 0.00 0.00 94 1016.6
20260901090704 17 5 0.0 0.0 0.00 0.00 0.00 94 1016.6
20260901083204 17 5 0.0 0.0 0.00 0.00 0.00 94 1016.6
20260901081704 17 5 0.0 0.0 0.00 0.00 0.00 94 1016.7
20260901080704 17 5 0.0 0.0 0.00 0.00 0.00 94 1016.6
20260901073704 17 5 0.0 0.0 0.00 0.00 0.00 93 1016.9
20260901073204 17 5 0.0 0.0 0.00 0.00 0.00 93 1017.0
20260901070704 17 5 0.0 0.0 0.00 0.00 0.00 93 1017.0
20260901070205 17 5 0.0 0.0 0.00 0.00 0.00 93 1017.1
20260901065204 17 5 0.0 0.0 0.00 0.00 0.00 93 1017.2
20260901064704 17 5 0.0 0.0 0.00 0.00 0.00 93 1017.2
20260901064204 17 5 0.0 0.0 0.00 0.00 0.00 93 1017.3
20260901063204 17 5 0.0 0.0 0.00 0.00 0.00 93 1017.2
20260901062704 17 5 0.0 0.0 0.00 0.00 0.00 93 1017.2
20260901062204 17 5 0.0 0.0 0.00 0.00 0.00 93 1017.3
20260901061704 17 5 0.0 0.0 0.00 0.00 0.00 93 1017.2
20260901055703 17 5 0.0 0.0 0.00 0.00 0.00 93 1017.3
20260901053704 17 5 0.0 0.0 0.00 0.00 0.00 92 1017.3
20260901053204 17 5 0.0 0.0 0.00 0.00 0.00 92 1017.4
20260901052703 17 5 0.0 0.0 0.00 0.00 0.00 92 1017.4
20260901052205 17 5 0.0 0.0 0.00 0.00 0.00 91 1017.4
20260901051204 17 5 0.0 0.0 0.00 0.00 0.00 91 1017.4
20260901050204 17 5 0.0 0.0 0.00 0.00 0.00 91 1017.3
20260901045204 17 5 0.0 0.0 0.00 0.00 0.00 90 1017.4
20260901044704 17 5 0.0 0.0 0.00 0.00 0.00 90 1017.5
20260901044203 17 5 0.0 0.0 0.00 0.00 0.00 90 1017.5
20260901042704 17 5 0.0 0.0 0.00 0.00 0.00 90 1017.3
20260901041704 17 5 0.0 0.0 0.00 0.00 0.00 90 1017.4
20260901040204 18 5 0.0 0.0 0.00 0.00 0.00 90 1017.3
20260901034703 18 5 0.0 0.0 0.00 0.00 0.00 90 1017.4
20260901034204 18 5 0.0 0.0 0.00 0.00 0.00 90 1017.4
20260901033703 18 5 0.0 0.0 0.00 0.00 0.00 90 1017.4
20260901033203 18 5 0.0 0.0 0.00 0.00 0.00 90 1017.4
20260901032704 18 5 0.0 0.0 0.00 0.00 0.00 90 1017.4
20260901031703 18 5 0.0 0.0 0.00 0.00 0.00 90 1017.4
20260901025704 18 5 0.0 0.0 0.00 0.00 0.00 90 1017.5
20260901024703 18 5 0.0 0.0 0.00 0.00 0.00 90 1017.4
20260901023203 18 5 0.0 0.0 0.00 0.00 0.00 90 1017.2
20260901022704 18 5 0.0 0.0 0.00 0.00 0.00 90 1017.3
20260901021204 18 5 0.0 0.0 0.00 0.00 0.00 89 1017.3
20260901020704 18 5 0.0 0.0 0.00 0.00 0.00 89 1017.3
20260901015703 18 5 0.0 0.0 0.00 0.00 0.00 89 1017.3
20260901014704 18 5 0.0 0.0 0.00 0.00 0.00 88 1017.4
20260901014204 18 5 0.0 0.0 0.00 0.00 0.00 89 1017.4
20260901013704 18 5 0.0 0.0 0.00 0.00 0.00 88 1017.4
20260901013204 18 5 0.0 0.0 0.00 0.00 0.00 88 1017.5
20260901011704 18 5 0.0 0.0 0.00 0.00 0.00 87 1017.5
20260901011203 18 5 0.0 0.0 0.00 0.00 0.00 86 1017.5
20260901010704 18 5 0.0 0.0 0.00 0.00 0.00 86 1017.5
20260901005703 19 5 0.0 0.0 0.00 0.00 0.00 86 1017.6
20260901005203 19 5 0.0 0.0 0.00 0.00 0.00 87 1017.6
20260901004203 19 5 0.0 0.0 0.00 0.00 0.00 86 1017.5
20260901003703 20 5 0.0 0.0 0.00 0.00 0.00 85 1017.4
20260901003204 20 5 0.0 0.0 0.00 0.00 0.00 83 1017.5
20260901001205 20 5 0.0 0.0 0.00 0.00 0.00 82 1017.2
20260901000705 20 5 0.0 0.0 0.00 0.00 0.00 83 1017.1
20260831232705 21 5 0.0 0.0 0.00 0.00 0.00 80 1017.3
20260831232204 21 5 0.0 0.0 0.00 0.00 0.00 79 1017.3
20260831230205 22 5 0.0 0.0 0.00 0.00 0.00 80 1017.4
20260831223705 22 5 0.0 0.0 0.00 0.00 0.00 76 1017.6
20260831222205 22 5 0.0 0.0 0.00 0.00 0.00 74 1017.5
20260831221704 22 5 0.0 1.6 0.00 0.00 0.00 74 1017.6
20260831221205 23 5 0.0 1.6 0.00 0.00 0.00 73 1017.6
20260831220704 23 5 0.0 1.6 0.00 0.00 0.00 73 1017.5
20260831220205 23 247 0.0 0.0 0.00 0.00 0.00 73 1017.5
20260831215705 23 247 0.0 1.6 0.00 0.00 0.00 71 1017.4
20260831215205 23 247 0.0 0.0 0.00 0.00 0.00 72 1017.4
20260831214205 23 247 0.0 1.6 0.00 0.00 0.00 70 1017.4
20260831213204 23 247 0.0 0.0 0.00 0.00 0.00 70 1017.4
20260831212205 23 247 0.0 0.0 0.00 0.00 0.00 71 1017.4
20260831211704 23 247 0.0 0.0 0.00 0.00 0.00 71 1017.5
20260831210704 23 247 0.0 1.6 0.00 0.00 0.00 69 1017.7
20260831210204 23 244 0.0 4.8 0.00 0.00 0.00 71 1017.7
20260831205704 23 236 0.0 3.2 0.00 0.00 0.00 69 1017.7
20260831202704 24 232 1.6 3.2 0.00 0.00 0.00 69 1017.7
20260831201705 24 223 0.0 3.2 0.00 0.00 0.00 70 1017.7
20260831200705 24 262 0.0 4.8 0.00 0.00 0.00 64 1017.7
20260831194705 24 56 0.0 4.8 0.00 0.00 0.00 63 1017.9
20260831193705 24 289 1.6 4.8 0.00 0.00 0.00 64 1017.9
20260831193205 24 51 1.6 4.8 0.00 0.00 0.00 61 1017.8
20260831192704 24 49 1.6 4.8 0.00 0.00 0.00 57 1017.9
20260831192205 24 335 1.6 3.2 0.00 0.00 0.00 66 1017.9
20260831191704 24 5 1.6 9.7 0.00 0.00 0.00 60 1017.9
20260831190704 23 214 0.0 3.2 0.00 0.00 0.00 64 1018.3
20260831190205 23 217 0.0 1.6 0.00 0.00 0.00 66 1018.3
20260831185705 23 217 1.6 3.2 0.00 0.00 0.00 63 1018.3
20260831184705 23 73 0.0 1.6 0.00 0.00 0.00 61 1018.4
20260831183705 23 67 1.6 4.8 0.00 0.00 0.00 61 1018.5
20260831183205 23 242 0.0 1.6 0.00 0.00 0.00 64 1018.6
20260831181204 23 244 0.0 1.6 0.00 0.00 0.00 63 1018.8
20260831180704 23 249 0.0 1.6 0.00 0.00 0.00 65 1018.8
20260831175704 23 255 0.0 3.2 0.00 0.00 0.00 62 1018.7
20260831174704 23 254 1.6 4.8 0.00 0.00 0.00 64 1018.9
20260831173204 23 31 1.6 4.8 0.00 0.00 0.00 57 1018.9
20260831172705 23 310 1.6 11.3 0.00 0.00 0.00 60 1019.0
20260831171705 23 86 0.0 3.2 0.00 0.00 0.00 59 1019.1
20260831170205 23 359 0.0 3.2 0.00 0.00 0.00 58 1019.2
20260831165705 22 101 0.0 4.8 0.00 0.00 0.00 59 1019.3
20260831165204 22 64 3.2 4.8 0.00 0.00 0.00 58 1019.4
20260831164205 22 284 0.0 4.8 0.00 0.00 0.00 68 1019.6
20260831161704 22 276 1.6 9.7 0.00 0.00 0.00 62 1019.8
20260831160705 22 286 1.6 4.8 0.00 0.00 0.00 63 1019.8
20260831160205 22 253 0.0 4.8 0.00 0.00 0.00 63 1019.8
20260831155704 21 278 3.2 4.8 0.00 0.00 0.00 63 1019.9
20260831155205 21 259 1.6 3.2 0.00 0.00 0.00 66 1019.9
20260831154705 21 258 0.0 3.2 0.00 0.00 0.00 63 1019.9
20260831154204 21 257 3.2 4.8 0.00 0.00 0.00 67 1019.9
20260831153205 21 261 3.2 8.0 0.00 0.00 0.00 66 1020.0
20260831151705 20 23 0.0 4.8 0.00 0.00 0.00 69 1020.1
20260831150705 20 257 0.0 3.2 0.00 0.00 0.00 73 1020.2
20260831150204 20 255 0.0 1.6 0.00 0.00 0.00 73 1020.2
20260831145204 20 277 1.6 4.8 0.00 0.00 0.00 73 1020.3
20260831144204 20 49 0.0 3.2 0.00 0.00 0.00 75 1020.4
20260831143704 20 57 0.0 3.2 0.00 0.00 0.00 72 1020.4
20260831141704 19 78 0.0 3.2 0.00 0.00 0.00 77 1020.5
20260831140204 18 82 0.0 1.6 0.00 0.00 0.00 80 1020.3
20260831135205 18 80 0.0 1.6 0.00 0.00 0.00 82 1020.4
20260831134205 17 80 1.6 4.8 0.00 0.00 0.00 81 1020.4